Weather in Nenoksa

Russia / Arkhangel'skaya Oblast'     64°37′15″N   39°11′08″E
temp.,
°C
wind,
m/s
gust,
m/s
humid.,
%
clouds,
%
prec.,
mm/h
press.,
hPa
HPBL,
m
3 march, wed
wed300:00−6nw61488100 0.0 1003729
03:00−7wnw5138879 0.0 1003489
06:00−7wnw4119582 0.0 1001387
09:00−6wnw499489 0.1 1000478
12:00−5wnw379295 0.1 998483
15:00−4wnw368793 0.1 997668
18:00−7wnw229584 0.0 99532
21:00−10nw239587 0.0 99525
4 march, thu
thu400:00−9nnw2597100 0.1 994124
03:00−10nne229799 0.4 99774
06:00−13nnw1297100 0.0 99621
09:00−10n2696100 0.3 997363
12:00−9nne2493100 0.4 997394
15:00−9n2492100 0.7 998454
18:00−13nne1295100 0.1 99940
21:00−17n129399 0.1 100020
5 march, fri
fri500:00−16ne1198100 0.1 100123
03:00−17e0198100 0.5 100320
06:00−17nw119893 0.3 100422
09:00−14nne159697 0.6 1005289
12:00−12nne2589100 0.1 1006576
15:00−11n1393100 0.4 1008401
18:00−13nw2497100 0.4 1008109
21:00−16nw1295100 0.6 100920
6 march, sat
sat600:00−16w2296100 0.1 100940
03:00−15w359498 0.1 1010131
06:00−18wsw368857 0.0 100995
09:00−15wsw389430 0.0 1008232
12:00−11wsw369371 0.0 1006322
15:00−10sw369184 0.0 1004367
18:00−14ssw239552 0.0 100157
21:00−15s369634 0.0 999115
7 march, sun
sun700:00−15se389660 0.0 996196
03:00−15ese4109679 0.0 994270
06:00−14ese51194100 0.0 991413
09:00−14e51094100 0.1 992429
12:00−13ene51093100 0.1 993452
15:00−11ene51190100 0.1 996603
18:00−14ne51193100 0.0 999516
21:00−19nne41095100 0.1 1002414